CW6395 Weather Reports


time (UTC)temp
F
wind
direction
speed
knots
gust
knots
rain 1hr
in
rain 24hr
in
rain mn
in
humidity
%
barometer
mb
20260506122017 68 225 5.2 9.6 0.00 0.00 0.00 85 1014.6
20260506121017 67 225 5.2 10.4 0.00 0.00 0.00 86 1014.6
20260506120037 67 225 6.1 11.3 0.00 0.00 0.00 87 1014.8
20260506115017 66 203 7.0 11.3 0.00 0.00 0.00 87 1014.9
20260506114017 66 203 6.1 10.4 0.00 0.00 0.00 87 1014.9
20260506113037 66 225 5.2 9.6 0.00 0.00 0.00 87 1014.8
20260506112057 66 203 6.1 9.6 0.00 0.00 0.00 88 1014.7
20260506111017 65 203 5.2 8.7 0.00 0.00 0.00 89 1014.5
20260506110057 65 203 5.2 10.4 0.00 0.00 0.00 89 1014.5
20260506105017 64 203 4.3 8.7 0.00 0.00 0.00 90 1014.5
20260506104017 64 203 3.5 7.0 0.00 0.00 0.00 90 1014.7
20260506103017 64 158 4.3 7.8 0.00 0.00 0.00 90 1014.7
20260506102016 64 203 4.3 7.0 0.00 0.00 0.00 90 1014.6
20260506101016 64 158 4.3 8.7 0.00 0.00 0.00 90 1014.2
20260506100017 64 203 2.6 8.7 0.00 0.00 0.00 90 1014.2
20260506095016 64 158 4.3 7.0 0.00 0.00 0.00 89 1014.4
20260506094016 64 203 3.5 6.1 0.00 0.00 0.00 89 1014.4
20260506093016 64 203 4.3 7.8 0.00 0.00 0.00 88 1014.5
20260506092036 64 180 6.1 9.6 0.00 0.00 0.00 88 1014.6
20260506091018 64 203 6.1 10.4 0.00 0.00 0.00 88 1014.7
20260506090016 64 225 6.1 10.4 0.00 0.00 0.00 88 1014.8
20260506085036 64 203 6.1 11.3 0.00 0.00 0.00 88 1014.8
20260506084037 64 180 5.2 8.7 0.00 0.00 0.00 88 1014.7
20260506083057 64 225 5.2 9.6 0.00 0.00 0.00 88 1014.6
20260506082016 64 203 4.3 7.8 0.00 0.00 0.00 88 1014.6
20260506081016 64 203 5.2 11.3 0.00 0.00 0.00 88 1014.5
20260506073016 64 203 5.2 8.7 0.00 0.00 0.00 89 1014.6
20260506072016 64 203 3.5 6.1 0.00 0.00 0.00 89 1014.5
20260506071016 64 225 1.7 5.2 0.00 0.00 0.00 89 1014.5
20260506062059 65 225 5.2 7.8 0.00 0.00 0.00 86 1015.0
20260506061016 65 203 6.1 10.4 0.00 0.00 0.00 87 1015.2
20260506051015 65 225 7.0 13.0 0.00 0.00 0.00 87 1015.6
20260506045016 65 203 6.1 13.0 0.00 0.00 0.00 86 1015.6
20260506044036 65 203 7.0 10.4 0.00 0.00 0.00 86 1015.7
20260506043015 65 203 7.0 11.3 0.00 0.00 0.00 86 1015.9
20260506042015 66 225 7.8 11.3 0.00 0.00 0.00 86 1015.9
20260506041015 66 203 7.0 13.0 0.00 0.00 0.00 85 1016.0
20260506040016 66 203 7.8 15.6 0.00 0.00 0.00 85 1015.8
20260506035017 66 203 7.8 11.3 0.00 0.00 0.00 85 1015.8
20260506034017 66 203 7.0 11.3 0.00 0.00 0.00 85 1015.9
20260506033017 66 225 7.0 11.3 0.00 0.00 0.00 85 1015.8
20260506032018 66 203 7.0 12.2 0.00 0.00 0.00 85 1015.8
20260506031018 66 203 7.0 13.0 0.00 0.00 0.00 85 1016.0
20260506030017 66 180 6.1 13.0 0.00 0.00 0.00 84 1015.9
20260506025017 66 203 5.2 8.7 0.00 0.00 0.00 84 1015.9
20260506024017 67 203 6.1 12.2 0.00 0.00 0.00 83 1016.0
20260506023017 67 203 6.1 9.6 0.00 0.00 0.00 81 1015.9
20260506022017 67 203 6.1 10.4 0.00 0.00 0.00 80 1015.9
20260506021017 67 203 5.2 7.8 0.00 0.00 0.00 78 1015.9
20260506020017 68 203 6.1 13.0 0.00 0.00 0.00 77 1015.7
20260506015017 68 225 6.1 11.3 0.00 0.00 0.00 77 1015.6
20260506014037 68 203 7.0 11.3 0.00 0.00 0.00 77 1015.7
20260506013017 68 158 6.1 10.4 0.00 0.00 0.00 76 1015.6
20260506012017 68 203 5.2 10.4 0.00 0.00 0.00 76 1015.6
20260506011017 69 203 7.0 13.0 0.00 0.00 0.00 75 1015.5
20260506010017 69 225 7.8 16.5 0.00 0.00 0.00 75 1015.5
20260506005017 69 203 6.1 9.6 0.00 0.00 0.00 75 1015.3
20260506004017 70 203 7.0 12.2 0.00 0.00 0.00 74 1015.2
20260506003017 70 203 8.7 13.9 0.00 0.00 0.00 73 1015.2
20260506002037 70 203 8.7 18.2 0.00 0.00 0.00 72 1015.1
20260506001037 70 225 8.7 13.9 0.00 0.00 0.00 72 1015.1
20260506000017 71 225 9.6 15.6 0.00 0.00 0.00 71 1014.8
20260505235017 71 203 8.7 13.0 0.00 0.00 0.00 71 1014.8
20260505234017 71 158 8.7 13.0 0.00 0.00 0.00 70 1014.6
20260505233017 71 203 7.8 13.0 0.00 0.00 0.00 71 1014.6
20260505232017 72 225 7.0 13.9 0.00 0.00 0.00 70 1014.5
20260505231017 72 203 6.1 13.0 0.00 0.00 0.00 70 1014.5
20260505230017 73 203 6.1 11.3 0.00 0.00 0.00 69 1014.5
20260505225016 74 203 7.8 13.9 0.00 0.00 0.00 67 1014.5
20260505224037 74 203 7.8 15.6 0.00 0.00 0.00 68 1014.5
20260505223017 74 203 7.8 15.6 0.00 0.00 0.00 67 1014.5
20260505222016 74 203 8.7 17.4 0.00 0.00 0.00 67 1014.5
20260505221036 74 203 7.8 17.4 0.00 0.00 0.00 67 1014.4
20260505220017 75 225 7.8 13.9 0.00 0.00 0.00 66 1014.5
20260505215017 75 203 7.8 16.5 0.00 0.00 0.00 65 1014.4
20260505214017 77 203 10.4 22.6 0.00 0.00 0.00 63 1014.4
20260505213016 77 203 7.8 13.0 0.00 0.00 0.00 63 1014.3
20260505212016 77 225 8.7 16.5 0.00 0.00 0.00 63 1014.3
20260505211036 78 225 7.8 13.9 0.00 0.00 0.00 61 1014.3
20260505210017 78 203 7.0 15.6 0.00 0.00 0.00 61 1014.2
20260505205036 79 225 4.3 12.2 0.00 0.00 0.00 60 1014.1
20260505204016 79 180 7.8 13.9 0.00 0.00 0.00 59 1014.3
20260505203016 79 225 8.7 13.9 0.00 0.00 0.00 59 1014.2
20260505202016 79 203 8.7 17.4 0.00 0.00 0.00 57 1014.3
20260505201016 79 225 8.7 18.2 0.00 0.00 0.00 56 1014.7
20260505200016 79 180 7.8 13.9 0.00 0.00 0.00 55 1014.7
20260505195016 80 203 8.7 16.5 0.00 0.00 0.00 54 1014.9
20260505194016 80 203 8.7 13.9 0.00 0.00 0.00 53 1014.9
20260505193036 80 225 7.8 13.9 0.00 0.00 0.00 53 1015.0
20260505192016 80 225 7.8 13.9 0.00 0.00 0.00 51 1015.1
20260505191016 80 180 8.7 17.4 0.00 0.00 0.00 51 1015.4
20260505190016 80 225 8.7 15.6 0.00 0.00 0.00 51 1015.4
20260505185016 80 225 8.7 13.9 0.00 0.00 0.00 52 1015.4
20260505184036 79 225 8.7 17.4 0.00 0.00 0.00 52 1015.5
20260505183016 79 203 10.4 16.5 0.00 0.00 0.00 52 1015.5
20260505182016 79 203 7.8 12.2 0.00 0.00 0.00 54 1015.4
20260505181016 79 203 8.7 18.2 0.00 0.00 0.00 54 1015.6
20260505180016 79 225 8.7 17.4 0.00 0.00 0.00 54 1015.8
20260505175016 79 225 7.8 13.9 0.00 0.00 0.00 55 1015.8
20260505174016 79 225 7.8 16.5 0.00 0.00 0.00 55 1015.9
20260505173016 78 203 7.0 13.0 0.00 0.00 0.00 54 1015.9
20260505172016 78 158 7.0 12.2 0.00 0.00 0.00 57 1016.0
20260505171015 78 225 11.3 17.4 0.00 0.00 0.00 53 1016.0
20260505170036 78 225 10.4 19.1 0.00 0.00 0.00 51 1016.2
20260505165036 78 225 11.3 16.5 0.00 0.00 0.00 53 1016.3
20260505164016 77 225 11.3 16.5 0.00 0.00 0.00 54 1016.4
20260505163016 76 225 10.4 16.5 0.00 0.00 0.00 55 1016.5
20260505162036 76 203 12.2 17.4 0.00 0.00 0.00 56 1016.7
20260505161036 76 225 11.3 16.5 0.00 0.00 0.00 56 1016.9
20260505153037 74 203 9.6 16.5 0.00 0.00 0.00 59 1016.9
20260505152038 74 225 9.6 15.6 0.00 0.00 0.00 60 1017.0
20260505151017 74 225 10.4 13.0 0.00 0.00 0.00 61 1016.9
20260505125017 67 225 10.4 15.6 0.00 0.00 0.00 73 1017.1
20260505124037 67 225 8.7 11.3 0.00 0.00 0.00 74 1017.0
20260505123017 66 225 7.8 12.2 0.00 0.00 0.00 75 1016.9